Location: Unspecified
(44.4377°N, 88.0525°W)
Time: 07:04:03
(UTC-05:00)

Cosmos 1674 - Visible Passes

Search period start: 29 April 2016 00:00
Search period end: 09 May 2016 00:00
Orbit: 501 x 527 km, 82.5° (Epoch: 28 April)

Date Brightness Start Highest point End Pass type
(mag) Time Alt. Az. Time Alt. Az. Time Alt. Az.
29 Apr 5.5 04:26:19 10° SE 04:29:02 19° E 04:31:46 10° NE visible
30 Apr 5.6 04:11:12 10° SE 04:13:31 16° E 04:15:49 10° NE visible
01 May 5.7 03:56:15 10° ESE 03:57:58 13° E 03:59:41 10° ENE visible
02 May 5.9 03:41:53 10° E 03:42:27 10° E 03:43:00 10° ENE visible
03 May 2.6 04:58:09 10° SSW 05:01:57 72° W 05:05:44 10° N visible
04 May 2.6 04:42:30 10° S 04:46:18 89° WSW 04:50:07 10° N visible
05 May 2.9 04:26:55 10° S 04:30:42 73° E 04:34:28 10° NNE visible
06 May 3.2 04:11:21 10° S 04:15:04 57° E 04:18:48 10° NNE visible
07 May 3.6 03:55:52 10° SSE 03:59:28 45° E 04:03:05 10° NNE visible
08 May 4.0 03:40:41 12° SSE 03:43:51 36° E 03:47:20 10° NNE visible
